Location: G�nzburg
(48.4565°N, 10.3217°E)
Time: 12:05:21
(UTC+01:00)

N. Korean satellite - Visible Passes

Search period start: 23 November 2017 00:00
Search period end: 03 December 2017 00:00
Orbit: 460 x 514 km, 97.2° (Epoch: 22 November)

Date Brightness Start Highest point End Pass type
(mag) Time Alt. Az. Time Alt. Az. Time Alt. Az.
23 Nov 10.2 05:56:53 10° ENE 05:58:09 11° E 05:59:24 10° ESE visible
23 Nov 6.4 18:08:00 10° SSE 18:11:32 82° ENE 18:15:10 10° N visible
24 Nov 6.9 17:44:43 10° SE 17:48:05 42° ENE 17:51:33 10° N visible
24 Nov 9.7 19:19:41 10° SW 19:21:51 15° W 19:24:04 10° NW visible
25 Nov 8.6 06:41:33 10° NNE 06:45:02 35° E 06:48:31 10° SSE visible
25 Nov 7.6 17:21:49 10° ESE 17:24:44 24° ENE 17:27:42 10° NNE visible
25 Nov 8.7 18:55:06 10° SSW 18:58:10 27° W 19:01:18 10° NW visible
26 Nov 9.7 06:18:34 10° NE 06:21:24 20° E 06:24:13 10° SE visible
26 Nov 8.3 16:59:25 10° E 17:01:27 14° ENE 17:03:29 10° NNE visible
26 Nov 7.4 18:31:05 10° S 18:34:34 51° W 18:38:07 10° NNW visible
27 Nov 10.2 05:56:24 10° ENE 05:57:40 11° E 05:58:56 10° ESE visible
27 Nov 6.4 18:07:28 10° SSE 18:11:01 82° ENE 18:14:41 10° N visible
28 Nov 7.2 07:04:21 10° NNE 07:08:07 66° E 07:11:51 10° S visible
28 Nov 6.9 17:44:10 10° SE 17:47:34 42° ENE 17:51:04 10° N visible
28 Nov 9.7 19:19:05 10° SW 19:21:20 16° W 19:23:37 10° NW visible
29 Nov 8.6 06:41:02 10° NNE 06:44:32 35° E 06:48:00 10° SSE visible
29 Nov 7.7 17:21:15 10° ESE 17:24:11 24° ENE 17:27:12 10° NNE visible
29 Nov 8.7 18:54:29 10° SSW 18:57:37 28° W 19:00:49 10° NW visible
30 Nov 9.6 06:18:02 10° NE 06:20:52 20° E 06:23:41 10° SE visible
30 Nov 8.3 16:58:50 10° E 17:00:53 15° ENE 17:02:58 10° NNE visible
30 Nov 7.4 18:30:29 10° S 18:33:59 52° W 18:37:36 10° NNW visible
01 Dec 10.2 05:55:52 10° ENE 05:57:07 11° E 05:58:21 10° ESE visible
01 Dec 6.5 18:06:50 10° SSE 18:10:26 81° ENE 18:14:08 10° N visible
02 Dec 7.2 07:03:46 10° NNE 07:07:32 65° E 07:11:16 10° S visible
02 Dec 6.9 17:43:32 10° SE 17:46:57 42° ENE 17:50:29 10° N visible
02 Dec 9.6 19:18:24 10° SW 19:20:43 16° W 19:23:04 10° NW visible
